Location: Unspecified
(0.0000°N, 0.0000°E)
Time: 09:15:35
(UTC+00:00)

Envisat - Pass Details

Date: 28 June 2017
Orbit: 764 x 766 km, 98.2° (Epoch: 16 October)

Event Time Altitude Azimuth Distance (km) Brightness Sun altitude
Exits shadow 20:52:57 21° 326° (NW) 1,665 5.2 -38.3°
Drops below altitude 10° 20:54:38 10° 333° (NNW) 2,291 6.0 -38.6°
Sets 20:56:59 0° 339° (NNW) 3,214 6.8 -39.1°
